Year,Month,Day,Hour,Minute,Value (Times are PST for insolation in W/m^2)
2008,03,30,00,00,0.00
2008,03,30,00,01,0.00
2008,03,30,00,02,0.00
2008,03,30,00,03,0.00
2008,03,30,00,04,0.00
2008,03,30,00,05,0.00
2008,03,30,00,06,0.00
2008,03,30,00,07,0.00
2008,03,30,00,08,0.00
2008,03,30,00,09,0.00
2008,03,30,00,10,0.00
2008,03,30,00,11,0.00
2008,03,30,00,12,0.00
2008,03,30,00,13,0.00
2008,03,30,00,14,0.00
2008,03,30,00,15,0.00
2008,03,30,00,16,0.00
2008,03,30,00,17,0.00
2008,03,30,00,18,0.00
2008,03,30,00,19,0.00
2008,03,30,00,20,0.00
2008,03,30,00,21,0.00
2008,03,30,00,22,0.00
2008,03,30,00,23,0.00
2008,03,30,00,24,0.00
2008,03,30,00,25,0.00
2008,03,30,00,26,0.00
2008,03,30,00,27,0.00
2008,03,30,00,28,0.00
2008,03,30,00,29,0.00
2008,03,30,00,30,0.00
2008,03,30,00,31,0.00
2008,03,30,00,32,0.00
2008,03,30,00,33,0.00
2008,03,30,00,34,0.00
2008,03,30,00,35,0.00
2008,03,30,00,36,0.00
2008,03,30,00,37,0.00
2008,03,30,00,38,0.00
2008,03,30,00,39,0.00
2008,03,30,00,40,0.00
2008,03,30,00,41,0.00
2008,03,30,00,42,0.00
2008,03,30,00,43,0.00
2008,03,30,00,44,0.00
2008,03,30,00,45,0.00
2008,03,30,00,46,0.00
2008,03,30,00,47,0.00
2008,03,30,00,48,0.00
2008,03,30,00,49,0.00
2008,03,30,00,50,0.00
2008,03,30,00,51,0.00
2008,03,30,00,52,0.00
2008,03,30,00,53,0.00
2008,03,30,00,54,0.00
2008,03,30,00,55,0.00
2008,03,30,00,56,0.00
2008,03,30,00,57,0.00
2008,03,30,00,58,0.00
2008,03,30,00,59,0.00
2008,03,30,01,00,0.00
2008,03,30,01,01,0.00
2008,03,30,01,02,0.00
2008,03,30,01,03,0.00
2008,03,30,01,04,0.00
2008,03,30,01,05,0.00
2008,03,30,01,06,0.00
2008,03,30,01,07,0.00
2008,03,30,01,08,0.00
2008,03,30,01,09,0.00
2008,03,30,01,10,0.00
2008,03,30,01,11,0.00
2008,03,30,01,12,0.00
2008,03,30,01,13,0.00
2008,03,30,01,14,0.00
2008,03,30,01,15,0.00
2008,03,30,01,16,0.00
2008,03,30,01,17,0.00
2008,03,30,01,18,0.00
2008,03,30,01,19,0.00
2008,03,30,01,20,0.00
2008,03,30,01,21,0.00
2008,03,30,01,22,0.00
2008,03,30,01,23,0.00
2008,03,30,01,24,0.00
2008,03,30,01,25,0.00
2008,03,30,01,26,0.00
2008,03,30,01,27,0.00
2008,03,30,01,28,0.00
2008,03,30,01,29,0.00
2008,03,30,01,30,0.00
2008,03,30,01,31,0.00
2008,03,30,01,32,0.00
2008,03,30,01,33,0.00
2008,03,30,01,34,0.00
2008,03,30,01,35,0.00
2008,03,30,01,36,0.00
2008,03,30,01,37,0.00
2008,03,30,01,38,0.00
2008,03,30,01,39,0.00
2008,03,30,01,40,0.00
2008,03,30,01,41,0.00
2008,03,30,01,42,0.00
2008,03,30,01,43,0.00
2008,03,30,01,44,0.00
2008,03,30,01,45,0.00
2008,03,30,01,46,0.00
2008,03,30,01,47,0.00
2008,03,30,01,48,0.00
2008,03,30,01,49,0.00
2008,03,30,01,50,0.00
2008,03,30,01,51,0.00
2008,03,30,01,52,0.00
2008,03,30,01,53,0.00
2008,03,30,01,54,0.00
2008,03,30,01,55,0.00
2008,03,30,01,56,0.00
2008,03,30,01,57,0.00
2008,03,30,01,58,0.00
2008,03,30,01,59,0.00
2008,03,30,02,00,0.00
2008,03,30,02,01,0.00
2008,03,30,02,02,0.00
2008,03,30,02,03,0.00
2008,03,30,02,04,0.00
2008,03,30,02,05,0.00
2008,03,30,02,06,0.00
2008,03,30,02,07,0.00
2008,03,30,02,08,0.00
2008,03,30,02,09,0.00
2008,03,30,02,10,0.00
2008,03,30,02,11,0.00
2008,03,30,02,12,0.00
2008,03,30,02,13,0.00
2008,03,30,02,14,0.00
2008,03,30,02,15,0.00
2008,03,30,02,16,0.00
2008,03,30,02,17,0.00
2008,03,30,02,18,0.00
2008,03,30,02,19,0.00
2008,03,30,02,20,0.00
2008,03,30,02,21,0.00
2008,03,30,02,22,0.00
2008,03,30,02,23,0.00
2008,03,30,02,24,0.00
2008,03,30,02,25,0.00
2008,03,30,02,26,0.00
2008,03,30,02,27,0.00
2008,03,30,02,28,0.00
2008,03,30,02,29,0.00
2008,03,30,02,30,0.00
2008,03,30,02,31,0.00
2008,03,30,02,32,0.00
2008,03,30,02,33,0.00
2008,03,30,02,34,0.00
2008,03,30,02,35,0.00
2008,03,30,02,36,0.00
2008,03,30,02,37,0.00
2008,03,30,02,38,0.00
2008,03,30,02,39,0.00
2008,03,30,02,40,0.00
2008,03,30,02,41,0.00
2008,03,30,02,42,0.00
2008,03,30,02,43,0.00
2008,03,30,02,44,0.00
2008,03,30,02,45,0.00
2008,03,30,02,46,0.00
2008,03,30,02,47,0.00
2008,03,30,02,48,0.00
2008,03,30,02,49,0.00
2008,03,30,02,50,0.00
2008,03,30,02,51,0.00
2008,03,30,02,52,0.00
2008,03,30,02,53,0.00
2008,03,30,02,54,0.00
2008,03,30,02,55,0.00
2008,03,30,02,56,0.00
2008,03,30,02,57,0.00
2008,03,30,02,58,0.00
2008,03,30,02,59,0.00
2008,03,30,03,00,0.00
2008,03,30,03,01,0.00
2008,03,30,03,02,0.00
2008,03,30,03,03,0.00
2008,03,30,03,04,0.00
2008,03,30,03,05,0.00
2008,03,30,03,06,0.00
2008,03,30,03,07,0.00
2008,03,30,03,08,0.00
2008,03,30,03,09,0.00
2008,03,30,03,10,0.00
2008,03,30,03,11,0.00
2008,03,30,03,12,0.00
2008,03,30,03,13,0.00
2008,03,30,03,14,0.00
2008,03,30,03,15,0.00
2008,03,30,03,16,0.00
2008,03,30,03,17,0.00
2008,03,30,03,18,0.00
2008,03,30,03,19,0.00
2008,03,30,03,20,0.00
2008,03,30,03,21,0.00
2008,03,30,03,22,0.00
2008,03,30,03,23,0.00
2008,03,30,03,24,0.00
2008,03,30,03,25,0.00
2008,03,30,03,26,0.00
2008,03,30,03,27,0.00
2008,03,30,03,28,0.00
2008,03,30,03,29,0.00
2008,03,30,03,30,0.00
2008,03,30,03,31,0.00
2008,03,30,03,32,0.00
2008,03,30,03,33,0.00
2008,03,30,03,34,0.00
2008,03,30,03,35,0.00
2008,03,30,03,36,0.00
2008,03,30,03,37,0.00
2008,03,30,03,38,0.00
2008,03,30,03,39,0.00
2008,03,30,03,40,0.00
2008,03,30,03,41,0.00
2008,03,30,03,42,0.00
2008,03,30,03,43,0.00
2008,03,30,03,44,0.00
2008,03,30,03,45,0.00
2008,03,30,03,46,0.00
2008,03,30,03,47,0.00
2008,03,30,03,48,0.00
2008,03,30,03,49,0.00
2008,03,30,03,50,0.00
2008,03,30,03,51,0.00
2008,03,30,03,52,0.00
2008,03,30,03,53,0.00
2008,03,30,03,54,0.00
2008,03,30,03,55,0.00
2008,03,30,03,56,0.00
2008,03,30,03,57,0.00
2008,03,30,03,58,0.00
2008,03,30,03,59,0.00
2008,03,30,04,00,0.00
2008,03,30,04,01,0.00
2008,03,30,04,02,0.00
2008,03,30,04,03,0.00
2008,03,30,04,04,0.00
2008,03,30,04,05,0.00
2008,03,30,04,06,0.00
2008,03,30,04,07,0.00
2008,03,30,04,08,0.00
2008,03,30,04,09,0.00
2008,03,30,04,10,0.00
2008,03,30,04,11,0.00
2008,03,30,04,12,0.00
2008,03,30,04,13,0.00
2008,03,30,04,14,0.00
2008,03,30,04,15,0.00
2008,03,30,04,16,0.00
2008,03,30,04,17,0.00
2008,03,30,04,18,0.00
2008,03,30,04,19,0.00
2008,03,30,04,20,0.00
2008,03,30,04,21,0.00
2008,03,30,04,22,0.00
2008,03,30,04,23,0.00
2008,03,30,04,24,0.00
2008,03,30,04,25,0.00
2008,03,30,04,26,0.00
2008,03,30,04,27,0.00
2008,03,30,04,28,0.00
2008,03,30,04,29,0.00
2008,03,30,04,30,0.00
2008,03,30,04,31,0.00
2008,03,30,04,32,0.00
2008,03,30,04,33,0.00
2008,03,30,04,34,0.00
2008,03,30,04,35,0.00
2008,03,30,04,36,0.00
2008,03,30,04,37,0.00
2008,03,30,04,38,0.00
2008,03,30,04,39,0.00
2008,03,30,04,40,0.00
2008,03,30,04,41,0.00
2008,03,30,04,42,0.00
2008,03,30,04,43,0.00
2008,03,30,04,44,0.00
2008,03,30,04,45,0.00
2008,03,30,04,46,0.00
2008,03,30,04,47,0.00
2008,03,30,04,48,0.00
2008,03,30,04,49,0.00
2008,03,30,04,50,0.00
2008,03,30,04,51,0.00
2008,03,30,04,52,0.00
2008,03,30,04,53,0.00
2008,03,30,04,54,0.00
2008,03,30,04,55,0.00
2008,03,30,04,56,0.00
2008,03,30,04,57,0.00
2008,03,30,04,58,0.00
2008,03,30,04,59,0.00
2008,03,30,05,00,0.00
2008,03,30,05,01,0.00
2008,03,30,05,02,0.00
2008,03,30,05,03,0.00
2008,03,30,05,04,0.00
2008,03,30,05,05,0.00
2008,03,30,05,06,0.00
2008,03,30,05,07,0.00
2008,03,30,05,08,0.00
2008,03,30,05,09,0.00
2008,03,30,05,10,0.00
2008,03,30,05,11,0.00
2008,03,30,05,12,0.00
2008,03,30,05,13,0.00
2008,03,30,05,14,0.00
2008,03,30,05,15,0.00
2008,03,30,05,16,0.00
2008,03,30,05,17,0.00
2008,03,30,05,18,0.00
2008,03,30,05,19,0.00
2008,03,30,05,20,0.00
2008,03,30,05,21,0.00
2008,03,30,05,22,0.00
2008,03,30,05,23,0.00
2008,03,30,05,24,0.00
2008,03,30,05,25,0.00
2008,03,30,05,26,0.00
2008,03,30,05,27,0.00
2008,03,30,05,28,0.00
2008,03,30,05,29,0.00
2008,03,30,05,30,0.00
2008,03,30,05,31,0.00
2008,03,30,05,32,0.00
2008,03,30,05,33,0.00
2008,03,30,05,34,0.00
2008,03,30,05,35,0.00
2008,03,30,05,36,0.00
2008,03,30,05,37,0.00
2008,03,30,05,38,0.00
2008,03,30,05,39,0.00
2008,03,30,05,40,0.00
2008,03,30,05,41,0.00
2008,03,30,05,42,0.00
2008,03,30,05,43,0.00
2008,03,30,05,44,0.00
2008,03,30,05,45,0.00
2008,03,30,05,46,0.00
2008,03,30,05,47,0.00
2008,03,30,05,48,0.00
2008,03,30,05,49,0.00
2008,03,30,05,50,0.00
2008,03,30,05,51,0.00
2008,03,30,05,52,0.00
2008,03,30,05,53,0.00
2008,03,30,05,54,0.00
2008,03,30,05,55,0.00
2008,03,30,05,56,0.00
2008,03,30,05,57,0.00
2008,03,30,05,58,0.00
2008,03,30,05,59,0.00
2008,03,30,06,00,0.00
2008,03,30,06,01,0.00
2008,03,30,06,02,0.00
2008,03,30,06,03,0.00
2008,03,30,06,04,0.00
2008,03,30,06,05,0.00
2008,03,30,06,06,0.00
2008,03,30,06,07,0.00
2008,03,30,06,08,0.00
2008,03,30,06,09,0.00
2008,03,30,06,10,0.00
2008,03,30,06,11,0.00
2008,03,30,06,12,0.00
2008,03,30,06,13,0.00
2008,03,30,06,14,0.00
2008,03,30,06,15,0.00
2008,03,30,06,16,0.00
2008,03,30,06,17,0.00
2008,03,30,06,18,0.00
2008,03,30,06,19,0.00
2008,03,30,06,20,0.00
2008,03,30,06,21,0.00
2008,03,30,06,22,0.00
2008,03,30,06,23,0.00
2008,03,30,06,24,0.00
2008,03,30,06,25,0.00
2008,03,30,06,26,0.00
2008,03,30,06,27,0.00
2008,03,30,06,28,0.00
2008,03,30,06,29,0.00
2008,03,30,06,30,0.00
2008,03,30,06,31,0.00
2008,03,30,06,32,0.00
2008,03,30,06,33,0.00
2008,03,30,06,34,0.00
2008,03,30,06,35,0.00
2008,03,30,06,36,0.00
2008,03,30,06,37,0.00
2008,03,30,06,38,0.00
2008,03,30,06,39,0.00
2008,03,30,06,40,0.00
2008,03,30,06,41,0.00
2008,03,30,06,42,0.00
2008,03,30,06,43,0.00
2008,03,30,06,44,0.00
2008,03,30,06,45,0.00
2008,03,30,06,46,0.00
2008,03,30,06,47,0.00
2008,03,30,06,48,0.00
2008,03,30,06,49,0.00
2008,03,30,06,50,0.00
2008,03,30,06,51,0.00
2008,03,30,06,52,0.00
2008,03,30,06,53,0.00
2008,03,30,06,54,0.00
2008,03,30,06,55,0.00
2008,03,30,06,56,0.00
2008,03,30,06,57,0.00
2008,03,30,06,58,0.00
2008,03,30,06,59,0.00
2008,03,30,07,00,0.00
2008,03,30,07,01,0.00
2008,03,30,07,02,0.00
2008,03,30,07,03,0.00
2008,03,30,07,04,0.00
2008,03,30,07,05,0.00
2008,03,30,07,06,0.00
2008,03,30,07,07,0.00
2008,03,30,07,08,4.50
2008,03,30,07,09,5.00
2008,03,30,07,10,5.00
2008,03,30,07,11,5.00
2008,03,30,07,12,5.00
2008,03,30,07,13,5.00
2008,03,30,07,14,5.00
2008,03,30,07,15,5.00
2008,03,30,07,16,7.00
2008,03,30,07,17,7.00
2008,03,30,07,18,7.00
2008,03,30,07,19,7.00
2008,03,30,07,20,7.30
2008,03,30,07,21,9.30
2008,03,30,07,22,11.00
2008,03,30,07,23,11.20
2008,03,30,07,24,12.00
2008,03,30,07,25,12.00
2008,03,30,07,26,12.00
2008,03,30,07,27,12.60
2008,03,30,07,28,14.00
2008,03,30,07,29,14.00
2008,03,30,07,30,14.70
2008,03,30,07,31,16.00
2008,03,30,07,32,16.80
2008,03,30,07,33,18.00
2008,03,30,07,34,18.50
2008,03,30,07,35,19.00
2008,03,30,07,36,19.90
2008,03,30,07,37,21.00
2008,03,30,07,38,21.00
2008,03,30,07,39,22.00
2008,03,30,07,40,23.00
2008,03,30,07,41,23.00
2008,03,30,07,42,24.20
2008,03,30,07,43,25.00
2008,03,30,07,44,25.60
2008,03,30,07,45,26.00
2008,03,30,07,46,26.00
2008,03,30,07,47,27.40
2008,03,30,07,48,28.00
2008,03,30,07,49,29.50
2008,03,30,07,50,30.00
2008,03,30,07,51,31.50
2008,03,30,07,52,32.00
2008,03,30,07,53,32.80
2008,03,30,07,54,33.00
2008,03,30,07,55,34.70
2008,03,30,07,56,35.00
2008,03,30,07,57,36.80
2008,03,30,07,58,37.00
2008,03,30,07,59,38.90
2008,03,30,08,00,39.00
2008,03,30,08,01,40.00
2008,03,30,08,02,42.00
2008,03,30,08,03,42.10
2008,03,30,08,04,44.10
2008,03,30,08,05,46.00
2008,03,30,08,06,46.10
2008,03,30,08,07,47.30
2008,03,30,08,08,49.30
2008,03,30,08,09,51.30
2008,03,30,08,10,53.00
2008,03,30,08,11,53.20
2008,03,30,08,12,54.00
2008,03,30,08,13,54.50
2008,03,30,08,14,56.00
2008,03,30,08,15,56.50
2008,03,30,08,16,58.00
2008,03,30,08,17,58.00
2008,03,30,08,18,58.70
2008,03,30,08,19,60.00
2008,03,30,08,20,60.00
2008,03,30,08,21,60.80
2008,03,30,08,22,62.00
2008,03,30,08,23,62.00
2008,03,30,08,24,62.50
2008,03,30,08,25,63.00
2008,03,30,08,26,63.00
2008,03,30,08,27,64.10
2008,03,30,08,28,66.20
2008,03,30,08,29,67.00
2008,03,30,08,30,68.20
2008,03,30,08,31,69.60
2008,03,30,08,32,71.30
2008,03,30,08,33,73.40
2008,03,30,08,34,75.40
2008,03,30,08,35,76.70
2008,03,30,08,36,78.40
2008,03,30,08,37,80.50
2008,03,30,08,38,82.60
2008,03,30,08,39,83.80
2008,03,30,08,40,85.60
2008,03,30,08,41,86.00
2008,03,30,08,42,86.00
2008,03,30,08,43,86.00
2008,03,30,08,44,86.00
2008,03,30,08,45,86.00
2008,03,30,08,46,87.90
2008,03,30,08,47,89.90
2008,03,30,08,48,88.00
2008,03,30,08,49,83.80
2008,03,30,08,50,80.80
2008,03,30,08,51,76.90
2008,03,30,08,52,75.80
2008,03,30,08,53,74.20
2008,03,30,08,54,76.20
2008,03,30,08,55,77.60
2008,03,30,08,56,81.30
2008,03,30,08,57,83.00
2008,03,30,08,58,83.00
2008,03,30,08,59,83.20
2008,03,30,09,00,84.50
2008,03,30,09,01,86.00
2008,03,30,09,02,86.60
2008,03,30,09,03,88.00
2008,03,30,09,04,88.00
2008,03,30,09,05,87.30
2008,03,30,09,06,86.00
2008,03,30,09,07,85.10
2008,03,30,09,08,84.00
2008,03,30,09,09,84.00
2008,03,30,09,10,84.90
2008,03,30,09,11,88.00
2008,03,30,09,12,90.50
2008,03,30,09,13,94.00
2008,03,30,09,14,98.70
2008,03,30,09,15,100.00
2008,03,30,09,16,102.30
2008,03,30,09,17,104.00
2008,03,30,09,18,104.60
2008,03,30,09,19,104.30
2008,03,30,09,20,102.70
2008,03,30,09,21,100.60
2008,03,30,09,22,97.90
2008,03,30,09,23,94.00
2008,03,30,09,24,89.20
2008,03,30,09,25,85.00
2008,03,30,09,26,81.60
2008,03,30,09,27,79.40
2008,03,30,09,28,80.60
2008,03,30,09,29,83.50
2008,03,30,09,30,89.10
2008,03,30,09,31,92.70
2008,03,30,09,32,99.30
2008,03,30,09,33,104.50
2008,03,30,09,34,110.70
2008,03,30,09,35,118.00
2008,03,30,09,36,123.00
2008,03,30,09,37,128.30
2008,03,30,09,38,134.20
2008,03,30,09,39,139.50
2008,03,30,09,40,144.50
2008,03,30,09,41,149.90
2008,03,30,09,42,159.10
2008,03,30,09,43,165.90
2008,03,30,09,44,170.20
2008,03,30,09,45,166.00
2008,03,30,09,46,166.20
2008,03,30,09,47,178.20
2008,03,30,09,48,175.40
2008,03,30,09,49,175.10
2008,03,30,09,50,184.30
2008,03,30,09,51,192.00
2008,03,30,09,52,174.60
2008,03,30,09,53,162.60
2008,03,30,09,54,156.80
2008,03,30,09,55,183.30
2008,03,30,09,56,218.00
2008,03,30,09,57,195.10
2008,03,30,09,58,207.50
2008,03,30,09,59,242.50
2008,03,30,10,00,224.40
2008,03,30,10,01,209.80
2008,03,30,10,02,217.60
2008,03,30,10,03,260.60
2008,03,30,10,04,291.80
2008,03,30,10,05,262.30
2008,03,30,10,06,224.80
2008,03,30,10,07,187.40
2008,03,30,10,08,160.40
2008,03,30,10,09,166.90
2008,03,30,10,10,157.30
2008,03,30,10,11,164.50
2008,03,30,10,12,150.80
2008,03,30,10,13,151.30
2008,03,30,10,14,158.90
2008,03,30,10,15,160.00
2008,03,30,10,16,164.20
2008,03,30,10,17,157.40
2008,03,30,10,18,151.50
2008,03,30,10,19,141.50
2008,03,30,10,20,139.10
2008,03,30,10,21,139.00
2008,03,30,10,22,141.90
2008,03,30,10,23,142.00
2008,03,30,10,24,142.00
2008,03,30,10,25,140.90
2008,03,30,10,26,138.60
2008,03,30,10,27,135.00
2008,03,30,10,28,135.30
2008,03,30,10,29,137.00
2008,03,30,10,30,137.60
2008,03,30,10,31,141.00
2008,03,30,10,32,141.60
2008,03,30,10,33,144.80
2008,03,30,10,34,149.20
2008,03,30,10,35,153.50
2008,03,30,10,36,157.10
2008,03,30,10,37,162.00
2008,03,30,10,38,162.40
2008,03,30,10,39,165.80
2008,03,30,10,40,174.70
2008,03,30,10,41,184.60
2008,03,30,10,42,195.10
2008,03,30,10,43,202.00
2008,03,30,10,44,207.70
2008,03,30,10,45,222.00
2008,03,30,10,46,228.50
2008,03,30,10,47,224.90
2008,03,30,10,48,224.10
2008,03,30,10,49,251.60
2008,03,30,10,50,291.90
2008,03,30,10,51,329.40
2008,03,30,10,52,363.10
2008,03,30,10,53,387.00
2008,03,30,10,54,410.10
2008,03,30,10,55,407.40
2008,03,30,10,56,403.00
2008,03,30,10,57,373.80
2008,03,30,10,58,344.80
2008,03,30,10,59,385.20
2008,03,30,11,00,430.20
2008,03,30,11,01,468.40
2008,03,30,11,02,469.20
2008,03,30,11,03,474.00
2008,03,30,11,04,456.20
2008,03,30,11,05,461.20
2008,03,30,11,06,470.10
2008,03,30,11,07,439.50
2008,03,30,11,08,453.10
2008,03,30,11,09,525.20
2008,03,30,11,10,526.00
2008,03,30,11,11,502.00
2008,03,30,11,12,490.50
2008,03,30,11,13,571.40
2008,03,30,11,14,574.80
2008,03,30,11,15,576.20
2008,03,30,11,16,594.70
2008,03,30,11,17,601.00
2008,03,30,11,18,600.00
2008,03,30,11,19,602.00
2008,03,30,11,20,628.90
2008,03,30,11,21,637.20
2008,03,30,11,22,621.60
2008,03,30,11,23,584.00
2008,03,30,11,24,505.20
2008,03,30,11,25,360.60
2008,03,30,11,26,362.60
2008,03,30,11,27,360.00
2008,03,30,11,28,353.20
2008,03,30,11,29,373.60
2008,03,30,11,30,411.00
2008,03,30,11,31,411.00
2008,03,30,11,32,336.80
2008,03,30,11,33,210.00
2008,03,30,11,34,205.50
2008,03,30,11,35,237.00
2008,03,30,11,36,237.00
2008,03,30,11,37,509.70
2008,03,30,11,38,706.20
2008,03,30,11,39,705.00
2008,03,30,11,40,705.00
2008,03,30,11,41,675.70
2008,03,30,11,42,689.00
2008,03,30,11,43,707.30
2008,03,30,11,44,686.40
2008,03,30,11,45,677.00
2008,03,30,11,46,677.00
2008,03,30,11,47,677.00
2008,03,30,11,48,677.00
2008,03,30,11,49,677.00
2008,03,30,11,50,677.00
2008,03,30,11,51,227.90
2008,03,30,11,52,127.90
2008,03,30,11,53,144.00
2008,03,30,11,54,146.00
2008,03,30,11,55,666.60
2008,03,30,11,56,705.00
2008,03,30,11,57,715.00
2008,03,30,11,58,727.40
2008,03,30,11,59,754.00
2008,03,30,12,00,704.50
2008,03,30,12,01,234.00
2008,03,30,12,02,234.00
2008,03,30,12,03,234.00
2008,03,30,12,04,234.00
2008,03,30,12,05,225.60
2008,03,30,12,06,185.20
2008,03,30,12,07,208.80
2008,03,30,12,08,235.50
2008,03,30,12,09,260.20
2008,03,30,12,10,280.60
2008,03,30,12,11,295.80
2008,03,30,12,12,312.30
2008,03,30,12,13,329.00
2008,03,30,12,14,558.20
2008,03,30,12,15,984.00
2008,03,30,12,16,984.00
2008,03,30,12,17,719.80
2008,03,30,12,18,388.90
2008,03,30,12,19,380.00
2008,03,30,12,20,380.00
2008,03,30,12,21,380.00
2008,03,30,12,22,299.70
2008,03,30,12,23,227.90
2008,03,30,12,24,210.40
2008,03,30,12,25,191.80
2008,03,30,12,26,176.60
2008,03,30,12,27,168.80
2008,03,30,12,28,167.00
2008,03,30,12,29,169.70
2008,03,30,12,30,176.00
2008,03,30,12,31,178.00
2008,03,30,12,32,190.80
2008,03,30,12,33,200.30
2008,03,30,12,34,206.00
2008,03,30,12,35,210.20
2008,03,30,12,36,215.20
2008,03,30,12,37,220.50
2008,03,30,12,38,224.40
2008,03,30,12,39,228.40
2008,03,30,12,40,235.30
2008,03,30,12,41,240.80
2008,03,30,12,42,249.60
2008,03,30,12,43,272.00
2008,03,30,12,44,278.00
2008,03,30,12,45,259.50
2008,03,30,12,46,250.60
2008,03,30,12,47,243.90
2008,03,30,12,48,243.00
2008,03,30,12,49,243.10
2008,03,30,12,50,244.60
2008,03,30,12,51,248.40
2008,03,30,12,52,251.80
2008,03,30,12,53,255.60
2008,03,30,12,54,259.20
2008,03,30,12,55,264.80
2008,03,30,12,56,268.30
2008,03,30,12,57,272.60
2008,03,30,12,58,274.00
2008,03,30,12,59,272.20
2008,03,30,13,00,267.20
2008,03,30,13,01,262.40
2008,03,30,13,02,261.80
2008,03,30,13,03,265.00
2008,03,30,13,04,265.00
2008,03,30,13,05,551.70
2008,03,30,13,06,893.90
2008,03,30,13,07,880.50
2008,03,30,13,08,877.00
2008,03,30,13,09,875.40
2008,03,30,13,10,882.20
2008,03,30,13,11,901.10
2008,03,30,13,12,925.40
2008,03,30,13,13,946.80
2008,03,30,13,14,963.80
2008,03,30,13,15,976.80
2008,03,30,13,16,988.00
2008,03,30,13,17,995.20
2008,03,30,13,18,991.80
2008,03,30,13,19,984.80
2008,03,30,13,20,965.80
2008,03,30,13,21,915.00
2008,03,30,13,22,900.00
2008,03,30,13,23,399.20
2008,03,30,13,24,266.80
2008,03,30,13,25,238.60
2008,03,30,13,26,219.70
2008,03,30,13,27,205.30
2008,03,30,13,28,193.60
2008,03,30,13,29,185.40
2008,03,30,13,30,183.00
2008,03,30,13,31,186.00
2008,03,30,13,32,188.00
2008,03,30,13,33,192.20
2008,03,30,13,34,197.50
2008,03,30,13,35,202.40
2008,03,30,13,36,206.80
2008,03,30,13,37,211.50
2008,03,30,13,38,216.30
2008,03,30,13,39,219.30
2008,03,30,13,40,226.50
2008,03,30,13,41,233.00
2008,03,30,13,42,236.20
2008,03,30,13,43,236.70
2008,03,30,13,44,233.80
2008,03,30,13,45,227.20
2008,03,30,13,46,222.00
2008,03,30,13,47,218.60
2008,03,30,13,48,212.00
2008,03,30,13,49,200.50
2008,03,30,13,50,186.60
2008,03,30,13,51,171.30
2008,03,30,13,52,157.10
2008,03,30,13,53,145.60
2008,03,30,13,54,134.50
2008,03,30,13,55,126.30
2008,03,30,13,56,118.30
2008,03,30,13,57,111.20
2008,03,30,13,58,106.60
2008,03,30,13,59,104.40
2008,03,30,14,00,102.70
2008,03,30,14,01,103.40
2008,03,30,14,02,104.70
2008,03,30,14,03,105.00
2008,03,30,14,04,110.60
2008,03,30,14,05,113.70
2008,03,30,14,06,114.00
2008,03,30,14,07,114.00
2008,03,30,14,08,114.00
2008,03,30,14,09,114.00
2008,03,30,14,10,115.70
2008,03,30,14,11,119.60
2008,03,30,14,12,126.30
2008,03,30,14,13,133.30
2008,03,30,14,14,138.50
2008,03,30,14,15,141.70
2008,03,30,14,16,147.70
2008,03,30,14,17,150.90
2008,03,30,14,18,137.00
2008,03,30,14,19,121.00
2008,03,30,14,20,110.70
2008,03,30,14,21,103.60
2008,03,30,14,22,99.80
2008,03,30,14,23,98.00
2008,03,30,14,24,98.60
2008,03,30,14,25,103.10
2008,03,30,14,26,110.40
2008,03,30,14,27,118.30
2008,03,30,14,28,130.30
2008,03,30,14,29,145.50
2008,03,30,14,30,160.80
2008,03,30,14,31,169.80
2008,03,30,14,32,173.20
2008,03,30,14,33,177.00
2008,03,30,14,34,179.70
2008,03,30,14,35,182.50
2008,03,30,14,36,188.20
2008,03,30,14,37,196.60
2008,03,30,14,38,208.70
2008,03,30,14,39,218.00
2008,03,30,14,40,249.50
2008,03,30,14,41,302.00
2008,03,30,14,42,293.00
2008,03,30,14,43,272.00
2008,03,30,14,44,273.10
2008,03,30,14,45,276.30
2008,03,30,14,46,282.20
2008,03,30,14,47,286.20
2008,03,30,14,48,285.70
2008,03,30,14,49,287.00
2008,03,30,14,50,292.90
2008,03,30,14,51,296.40
2008,03,30,14,52,319.90
2008,03,30,14,53,329.00
2008,03,30,14,54,329.00
2008,03,30,14,55,713.80
2008,03,30,14,56,837.50
2008,03,30,14,57,870.30
2008,03,30,14,58,882.70
2008,03,30,14,59,875.00
2008,03,30,15,00,829.30
2008,03,30,15,01,775.40
2008,03,30,15,02,843.20
2008,03,30,15,03,831.00
2008,03,30,15,04,848.10
2008,03,30,15,05,844.00
2008,03,30,15,06,854.00
2008,03,30,15,07,872.20
2008,03,30,15,08,875.20
2008,03,30,15,09,856.40
2008,03,30,15,10,840.20
2008,03,30,15,11,820.30
2008,03,30,15,12,798.00
2008,03,30,15,13,798.00
2008,03,30,15,14,737.20
2008,03,30,15,15,504.50
2008,03,30,15,16,545.50
2008,03,30,15,17,568.00
2008,03,30,15,18,514.80
2008,03,30,15,19,366.00
2008,03,30,15,20,366.00
2008,03,30,15,21,366.00
2008,03,30,15,22,331.70
2008,03,30,15,23,276.00
2008,03,30,15,24,285.00
2008,03,30,15,25,297.00
2008,03,30,15,26,479.70
2008,03,30,15,27,699.80
2008,03,30,15,28,698.50
2008,03,30,15,29,690.00
2008,03,30,15,30,676.30
2008,03,30,15,31,630.70
2008,03,30,15,32,634.50
2008,03,30,15,33,666.00
2008,03,30,15,34,666.00
2008,03,30,15,35,666.00
2008,03,30,15,36,340.40
2008,03,30,15,37,177.60
2008,03,30,15,38,180.30
2008,03,30,15,39,180.40
2008,03,30,15,40,249.20
2008,03,30,15,41,272.00
2008,03,30,15,42,376.20
2008,03,30,15,43,404.00
2008,03,30,15,44,366.60
2008,03,30,15,45,345.50
2008,03,30,15,46,268.30
2008,03,30,15,47,268.10
2008,03,30,15,48,269.00
2008,03,30,15,49,160.10
2008,03,30,15,50,157.50
2008,03,30,15,51,158.00
2008,03,30,15,52,258.00
2008,03,30,15,53,265.00
2008,03,30,15,54,276.00
2008,03,30,15,55,485.00
2008,03,30,15,56,502.80
2008,03,30,15,57,654.30
2008,03,30,15,58,656.50
2008,03,30,15,59,659.60
2008,03,30,16,00,663.20
2008,03,30,16,01,660.40
2008,03,30,16,02,653.40
2008,03,30,16,03,678.50
2008,03,30,16,04,673.00
2008,03,30,16,05,650.70
2008,03,30,16,06,618.80
2008,03,30,16,07,631.30
2008,03,30,16,08,668.50
2008,03,30,16,09,664.00
2008,03,30,16,10,664.60
2008,03,30,16,11,671.30
2008,03,30,16,12,676.20
2008,03,30,16,13,686.50
2008,03,30,16,14,700.50
2008,03,30,16,15,708.00
2008,03,30,16,16,593.00
2008,03,30,16,17,478.00
2008,03,30,16,18,478.00
2008,03,30,16,19,478.00
2008,03,30,16,20,624.40
2008,03,30,16,21,724.40
2008,03,30,16,22,731.80
2008,03,30,16,23,733.70
2008,03,30,16,24,737.90
2008,03,30,16,25,741.50
2008,03,30,16,26,739.10
2008,03,30,16,27,738.00
2008,03,30,16,28,735.60
2008,03,30,16,29,726.20
2008,03,30,16,30,718.00
2008,03,30,16,31,708.50
2008,03,30,16,32,696.10
2008,03,30,16,33,681.10
2008,03,30,16,34,667.40
2008,03,30,16,35,655.20
2008,03,30,16,36,640.70
2008,03,30,16,37,628.60
2008,03,30,16,38,617.00
2008,03,30,16,39,608.00
2008,03,30,16,40,523.70
2008,03,30,16,41,597.30
2008,03,30,16,42,584.00
2008,03,30,16,43,583.10
2008,03,30,16,44,573.40
2008,03,30,16,45,558.30
2008,03,30,16,46,553.70
2008,03,30,16,47,553.00
2008,03,30,16,48,558.20
2008,03,30,16,49,562.00
2008,03,30,16,50,556.20
2008,03,30,16,51,529.60
2008,03,30,16,52,478.00
2008,03,30,16,53,401.50
2008,03,30,16,54,223.00
2008,03,30,16,55,223.00
2008,03,30,16,56,338.90
2008,03,30,16,57,568.80
2008,03,30,16,58,583.80
2008,03,30,16,59,570.00
2008,03,30,17,00,560.80
2008,03,30,17,01,556.00
2008,03,30,17,02,554.50
2008,03,30,17,03,540.00
2008,03,30,17,04,526.00
2008,03,30,17,05,339.00
2008,03,30,17,06,178.00
2008,03,30,17,07,161.80
2008,03,30,17,08,146.60
2008,03,30,17,09,136.80
2008,03,30,17,10,131.30
2008,03,30,17,11,128.70
2008,03,30,17,12,139.20
2008,03,30,17,13,129.80
2008,03,30,17,14,119.60
2008,03,30,17,15,118.00
2008,03,30,17,16,112.40
2008,03,30,17,17,107.80
2008,03,30,17,18,105.30